CFG25W LOWW-EDDS

Flight info

Callsign CFG25W
Flight time 0h 49m
Altitude 26000
Route LUGEM DCT KIRDI DCT EBEDA L173 DODIL T127 TEKSI TEKSI1W
Aircraft A20N/M-SDE2E3FGHIRWXY/LB1

Departure

Time 2026-05-07 14:10
Airport Vienna International Airport (LOWW)

Arrival

Time 2026-05-07 14:59
Airport Stuttgart Airport (EDDS)
Time Latitude Longitude Altitude Speed Heading
2026-05-07 13:49 48.11692 16.56848 604 ft 0 kts 27°
2026-05-07 14:02 48.11682 16.56840 605 ft 2 kts 26°
2026-05-07 14:03 48.11669 16.56831 605 ft 2 kts 27°
2026-05-07 14:03 48.11656 16.56820 605 ft 2 kts 26°
2026-05-07 14:03 48.11643 16.56808 605 ft 2 kts 51°
2026-05-07 14:03 48.11635 16.56788 604 ft 2 kts 71°
2026-05-07 14:04 48.11633 16.56766 604 ft 2 kts 92°
2026-05-07 14:04 48.11635 16.56745 604 ft 1 kts 112°
2026-05-07 14:04 48.11637 16.56740 604 ft 1 kts 117°
2026-05-07 14:04 48.11625 16.56777 604 ft 3 kts 116°
2026-05-07 14:05 48.11621 16.56789 605 ft 0 kts 116°
2026-05-07 14:06 48.11621 16.56790 604 ft 0 kts 116°
2026-05-07 14:06 48.11606 16.56835 605 ft 8 kts 117°
2026-05-07 14:07 48.11565 16.56959 605 ft 17 kts 112°
2026-05-07 14:07 48.11510 16.57137 605 ft 19 kts 116°
2026-05-07 14:07 48.11449 16.57319 602 ft 20 kts 117°
2026-05-07 14:07 48.11360 16.57369 601 ft 15 kts 202°
2026-05-07 14:08 48.11268 16.57301 603 ft 14 kts 208°
2026-05-07 14:08 48.11189 16.57340 602 ft 15 kts 118°
2026-05-07 14:08 48.11137 16.57494 599 ft 17 kts 117°
2026-05-07 14:08 48.11037 16.57504 599 ft 16 kts 205°
2026-05-07 14:09 48.10955 16.57416 601 ft 11 kts 269°
2026-05-07 14:09 48.10979 16.57327 603 ft 9 kts 295°
2026-05-07 14:09 48.11076 16.57026 604 ft 69 kts 296°
2026-05-07 14:09 48.11391 16.56052 589 ft 137 kts 296°
2026-05-07 14:10 48.11873 16.54613 854 ft 163 kts 294°
2026-05-07 14:10 48.12296 16.53054 1539 ft 162 kts 280°
2026-05-07 14:10 48.12255 16.51440 2295 ft 157 kts 259°
2026-05-07 14:10 48.11994 16.49826 2806 ft 168 kts 258°
2026-05-07 14:11 48.11708 16.48038 3220 ft 184 kts 259°
2026-05-07 14:11 48.11375 16.46104 3608 ft 204 kts 257°
2026-05-07 14:11 48.10984 16.43938 3979 ft 228 kts 256°
2026-05-07 14:11 48.10564 16.41571 4510 ft 247 kts 257°
2026-05-07 14:12 48.10124 16.38992 5075 ft 264 kts 259°
2026-05-07 14:12 48.09865 16.36280 5932 ft 269 kts 267°
2026-05-07 14:12 48.09839 16.33499 6885 ft 270 kts 271°
2026-05-07 14:12 48.09887 16.30721 7792 ft 274 kts 271°
2026-05-07 14:13 48.09945 16.27869 8707 ft 277 kts 270°
2026-05-07 14:13 48.10000 16.25019 9582 ft 281 kts 270°
2026-05-07 14:13 48.10058 16.22083 10427 ft 286 kts 271°
2026-05-07 14:13 48.10220 16.19047 10985 ft 302 kts 275°
2026-05-07 14:14 48.10494 16.15874 11430 ft 320 kts 276°
2026-05-07 14:14 48.10699 16.13605 11717 ft 333 kts 276°
2026-05-07 14:14 48.11077 16.08886 12211 ft 356 kts 273°
2026-05-07 14:14 48.11193 16.06340 12443 ft 368 kts 272°
2026-05-07 14:15 48.11393 16.01094 12846 ft 390 kts 272°
2026-05-07 14:15 48.11549 15.96984 13364 ft 399 kts 272°
2026-05-07 14:15 48.11713 15.92861 14063 ft 402 kts 272°
2026-05-07 14:15 48.11885 15.88678 14751 ft 405 kts 272°
2026-05-07 14:16 48.12059 15.84472 15407 ft 408 kts 272°
2026-05-07 14:16 48.12233 15.80236 16018 ft 411 kts 271°
2026-05-07 14:16 48.12410 15.75945 16628 ft 415 kts 271°
2026-05-07 14:16 48.12526 15.73088 17026 ft 417 kts 271°
2026-05-07 14:17 48.12763 15.67225 17836 ft 421 kts 271°
2026-05-07 14:17 48.12937 15.62870 18410 ft 424 kts 271°
2026-05-07 14:17 48.13110 15.58491 18946 ft 427 kts 271°
2026-05-07 14:17 48.13286 15.54024 19479 ft 430 kts 271°
2026-05-07 14:18 48.13460 15.49546 19992 ft 433 kts 271°
2026-05-07 14:18 48.13636 15.45018 20505 ft 436 kts 271°
2026-05-07 14:18 48.13810 15.40460 21009 ft 439 kts 271°
2026-05-07 14:18 48.13983 15.35900 21502 ft 442 kts 270°
2026-05-07 14:19 48.14154 15.31330 21969 ft 444 kts 270°
2026-05-07 14:19 48.14327 15.26678 22445 ft 447 kts 270°
2026-05-07 14:19 48.14496 15.22052 22907 ft 449 kts 270°
2026-05-07 14:19 48.14666 15.17366 23317 ft 451 kts 269°
2026-05-07 14:20 48.14778 15.14270 23624 ft 452 kts 269°
2026-05-07 14:20 48.14947 15.09580 23938 ft 450 kts 269°
2026-05-07 14:20 48.15164 15.03381 23962 ft 449 kts 269°
2026-05-07 14:20 48.15325 14.98708 23961 ft 449 kts 270°
2026-05-07 14:21 48.15483 14.94089 23966 ft 449 kts 270°
2026-05-07 14:21 48.15640 14.89429 23959 ft 449 kts 270°
2026-05-07 14:21 48.15795 14.84805 23962 ft 448 kts 270°
2026-05-07 14:21 48.15948 14.80162 23963 ft 448 kts 270°
2026-05-07 14:22 48.16101 14.75470 23964 ft 449 kts 270°
2026-05-07 14:22 48.16249 14.70864 23960 ft 449 kts 270°
2026-05-07 14:22 48.16399 14.66193 23968 ft 449 kts 270°
2026-05-07 14:22 48.16546 14.61529 23965 ft 448 kts 270°
2026-05-07 14:23 48.16691 14.56867 23968 ft 448 kts 270°
2026-05-07 14:23 48.16833 14.52238 23969 ft 448 kts 270°
2026-05-07 14:23 48.16974 14.47585 23970 ft 448 kts 270°
2026-05-07 14:23 48.17112 14.42977 23969 ft 447 kts 270°
2026-05-07 14:24 48.17250 14.38292 23968 ft 447 kts 270°
2026-05-07 14:24 48.17339 14.35248 23969 ft 447 kts 270°
2026-05-07 14:24 48.17472 14.30617 23976 ft 447 kts 269°
2026-05-07 14:24 48.17647 14.24416 23975 ft 447 kts 269°
2026-05-07 14:25 48.17777 14.19752 23981 ft 447 kts 269°
2026-05-07 14:25 48.17860 14.16694 23978 ft 447 kts 269°
2026-05-07 14:25 48.18029 14.10460 23983 ft 447 kts 269°
2026-05-07 14:25 48.18152 14.05831 23981 ft 447 kts 269°
2026-05-07 14:26 48.18273 14.01211 23984 ft 447 kts 270°
2026-05-07 14:26 48.18392 13.96550 23982 ft 447 kts 270°
2026-05-07 14:26 48.18509 13.91952 23973 ft 447 kts 270°
2026-05-07 14:26 48.18586 13.88829 23976 ft 447 kts 270°
2026-05-07 14:27 48.18740 13.82611 23976 ft 447 kts 270°
2026-05-07 14:27 48.18852 13.77989 23974 ft 448 kts 270°
2026-05-07 14:27 48.18963 13.73356 23977 ft 448 kts 270°
2026-05-07 14:27 48.19072 13.68692 23980 ft 448 kts 270°
2026-05-07 14:28 48.19178 13.64053 23979 ft 448 kts 270°
2026-05-07 14:28 48.19285 13.59354 23981 ft 448 kts 270°
2026-05-07 14:28 48.19388 13.54756 23982 ft 448 kts 270°
2026-05-07 14:28 48.19488 13.50117 23981 ft 448 kts 271°
2026-05-07 14:29 48.19588 13.45443 23979 ft 448 kts 271°
2026-05-07 14:29 48.19654 13.42334 23985 ft 449 kts 271°
2026-05-07 14:29 48.19783 13.36095 23989 ft 449 kts 271°
2026-05-07 14:29 48.19877 13.31431 23985 ft 449 kts 270°
2026-05-07 14:30 48.19970 13.26747 23989 ft 449 kts 270°
2026-05-07 14:30 48.20059 13.22104 23989 ft 450 kts 270°
2026-05-07 14:30 48.20147 13.17423 23989 ft 450 kts 270°
2026-05-07 14:30 48.20204 13.14360 23989 ft 450 kts 270°
2026-05-07 14:31 48.20319 13.08102 23995 ft 450 kts 270°
2026-05-07 14:31 48.20376 13.04973 23990 ft 450 kts 271°
2026-05-07 14:31 48.20485 12.98765 23988 ft 451 kts 271°
2026-05-07 14:31 48.20565 12.94047 23991 ft 451 kts 271°
2026-05-07 14:32 48.20616 12.90923 23990 ft 451 kts 271°
2026-05-07 14:32 48.20696 12.84687 23990 ft 451 kts 271°
2026-05-07 14:32 48.20896 12.81555 23979 ft 452 kts 279°
2026-05-07 14:32 48.21986 12.75471 23998 ft 453 kts 286°
2026-05-07 14:33 48.22933 12.71018 23992 ft 453 kts 287°
2026-05-07 14:33 48.23878 12.66502 23993 ft 452 kts 286°
2026-05-07 14:33 48.24482 12.63529 23991 ft 452 kts 286°
2026-05-07 14:33 48.25382 12.58974 23989 ft 451 kts 285°
2026-05-07 14:34 48.26249 12.54469 23989 ft 451 kts 285°
2026-05-07 14:34 48.27100 12.49964 23993 ft 451 kts 285°
2026-05-07 14:34 48.27938 12.45471 23990 ft 451 kts 285°
2026-05-07 14:34 48.29061 12.39402 23988 ft 450 kts 285°
2026-05-07 14:35 48.29895 12.34868 23990 ft 450 kts 284°
2026-05-07 14:35 48.30711 12.30404 23990 ft 450 kts 284°
2026-05-07 14:35 48.31265 12.27373 23989 ft 450 kts 284°
2026-05-07 14:35 48.32354 12.21387 23988 ft 449 kts 284°
2026-05-07 14:36 48.32909 12.18328 23988 ft 449 kts 284°
2026-05-07 14:36 48.33718 12.13858 23988 ft 450 kts 284°
2026-05-07 14:36 48.34540 12.09306 23988 ft 450 kts 284°
2026-05-07 14:36 48.35620 12.03305 23987 ft 450 kts 284°
2026-05-07 14:37 48.36444 11.98714 23989 ft 450 kts 284°
2026-05-07 14:37 48.37787 11.91209 23994 ft 450 kts 284°
2026-05-07 14:37 48.38868 11.85139 23996 ft 449 kts 285°
2026-05-07 14:38 48.39400 11.82141 23997 ft 448 kts 285°
2026-05-07 14:38 48.40191 11.77684 23751 ft 442 kts 285°
2026-05-07 14:38 48.40976 11.73256 22806 ft 442 kts 285°
2026-05-07 14:38 48.41765 11.68794 21818 ft 440 kts 285°
2026-05-07 14:39 48.42800 11.62916 20814 ft 432 kts 284°
2026-05-07 14:39 48.43558 11.58604 20235 ft 427 kts 284°
2026-05-07 14:39 48.44311 11.54299 20007 ft 427 kts 284°
2026-05-07 14:39 48.45063 11.49991 19996 ft 428 kts 284°
2026-05-07 14:40 48.45815 11.45674 19988 ft 429 kts 284°
2026-05-07 14:40 48.46565 11.41356 19992 ft 429 kts 285°
2026-05-07 14:40 48.47066 11.38462 19994 ft 429 kts 285°
2026-05-07 14:40 48.47818 11.34116 20000 ft 429 kts 284°
2026-05-07 14:41 48.48572 11.29749 19968 ft 426 kts 284°
2026-05-07 14:41 48.49305 11.25497 19510 ft 420 kts 284°
2026-05-07 14:41 48.50028 11.21296 18656 ft 418 kts 284°
2026-05-07 14:41 48.50994 11.15660 17569 ft 413 kts 284°
2026-05-07 14:42 48.51697 11.11544 16833 ft 409 kts 284°
2026-05-07 14:42 48.52171 11.08764 16330 ft 406 kts 284°
2026-05-07 14:42 48.53097 11.03319 15337 ft 400 kts 284°
2026-05-07 14:42 48.53775 10.99319 14595 ft 396 kts 284°
2026-05-07 14:43 48.54450 10.95327 13852 ft 393 kts 284°
2026-05-07 14:43 48.55119 10.91370 13121 ft 389 kts 284°
2026-05-07 14:43 48.55563 10.88742 12644 ft 386 kts 284°
2026-05-07 14:43 48.56437 10.83560 11702 ft 381 kts 284°
2026-05-07 14:44 48.56868 10.80991 11326 ft 377 kts 284°
2026-05-07 14:44 48.57500 10.77207 11041 ft 377 kts 284°
2026-05-07 14:44 48.58146 10.73342 11008 ft 378 kts 284°
2026-05-07 14:44 48.58787 10.69501 11012 ft 378 kts 284°
2026-05-07 14:45 48.59635 10.64400 11009 ft 378 kts 284°
2026-05-07 14:45 48.60272 10.60558 11009 ft 379 kts 284°
2026-05-07 14:45 48.60696 10.57995 10993 ft 379 kts 284°
2026-05-07 14:45 48.61547 10.52842 10994 ft 379 kts 284°
2026-05-07 14:46 48.62179 10.49008 11002 ft 379 kts 284°
2026-05-07 14:46 48.62819 10.45114 10996 ft 380 kts 284°
2026-05-07 14:46 48.63240 10.42546 10988 ft 380 kts 284°
2026-05-07 14:46 48.63879 10.38649 10990 ft 378 kts 284°
2026-05-07 14:47 48.64703 10.33606 10739 ft 362 kts 283°
2026-05-07 14:47 48.65091 10.31228 10580 ft 353 kts 283°
2026-05-07 14:47 48.65861 10.26499 10244 ft 334 kts 283°
2026-05-07 14:47 48.66401 10.23173 10032 ft 322 kts 283°
2026-05-07 14:48 48.66750 10.21013 9891 ft 314 kts 283°
2026-05-07 14:48 48.67421 10.16859 9622 ft 299 kts 283°
2026-05-07 14:48 48.67749 10.14821 9491 ft 292 kts 283°
2026-05-07 14:48 48.68219 10.11904 9298 ft 282 kts 283°
2026-05-07 14:49 48.68785 10.08142 9027 ft 270 kts 280°
2026-05-07 14:49 48.69125 10.05373 8679 ft 268 kts 280°
2026-05-07 14:49 48.69347 10.03539 8415 ft 267 kts 280°
2026-05-07 14:49 48.69792 9.99867 7992 ft 264 kts 280°
2026-05-07 14:50 48.70013 9.98050 7982 ft 266 kts 280°
2026-05-07 14:50 48.70348 9.95295 7913 ft 267 kts 281°
2026-05-07 14:50 48.70679 9.92574 7773 ft 259 kts 281°
2026-05-07 14:50 48.71101 9.89088 7561 ft 246 kts 281°
2026-05-07 14:51 48.71305 9.87408 7448 ft 241 kts 281°
2026-05-07 14:51 48.71601 9.84960 7261 ft 233 kts 281°
2026-05-07 14:51 48.71885 9.82603 7026 ft 229 kts 281°
2026-05-07 14:51 48.72263 9.79468 6656 ft 226 kts 281°
2026-05-07 14:52 48.72449 9.77914 6464 ft 224 kts 281°
2026-05-07 14:52 48.72726 9.75603 6180 ft 222 kts 281°
2026-05-07 14:52 48.73004 9.73292 5897 ft 221 kts 281°
2026-05-07 14:52 48.73277 9.71012 5617 ft 219 kts 281°
2026-05-07 14:53 48.73634 9.68027 5249 ft 217 kts 281°
2026-05-07 14:53 48.73814 9.66510 5061 ft 217 kts 281°
2026-05-07 14:53 48.74078 9.64293 4790 ft 215 kts 281°
2026-05-07 14:53 48.74427 9.61338 4477 ft 211 kts 282°
2026-05-07 14:54 48.74687 9.59146 4464 ft 210 kts 282°
2026-05-07 14:54 48.74855 9.57728 4449 ft 200 kts 282°
2026-05-07 14:54 48.74985 9.55028 4448 ft 195 kts 266°
2026-05-07 14:54 48.74843 9.53661 4388 ft 196 kts 261°
2026-05-07 14:55 48.74547 9.51634 4272 ft 195 kts 259°
2026-05-07 14:55 48.74213 9.49641 4189 ft 195 kts 257°
2026-05-07 14:55 48.73857 9.47684 4213 ft 186 kts 257°
2026-05-07 14:55 48.73396 9.45269 3962 ft 177 kts 256°
2026-05-07 14:56 48.73052 9.43483 3717 ft 173 kts 257°
2026-05-07 14:56 48.72725 9.41788 3486 ft 168 kts 257°
2026-05-07 14:56 48.72507 9.40659 3334 ft 164 kts 257°
2026-05-07 14:56 48.72091 9.38503 3064 ft 155 kts 257°
2026-05-07 14:57 48.71897 9.37489 2926 ft 150 kts 257°
2026-05-07 14:57 48.71530 9.35580 2655 ft 134 kts 257°
2026-05-07 14:57 48.71358 9.34675 2543 ft 133 kts 257°
2026-05-07 14:57 48.71019 9.32896 2317 ft 132 kts 257°
2026-05-07 14:58 48.70853 9.32020 2213 ft 131 kts 256°
2026-05-07 14:58 48.70514 9.30246 1981 ft 130 kts 257°
2026-05-07 14:58 48.70349 9.29383 1860 ft 130 kts 258°
2026-05-07 14:58 48.70016 9.27629 1629 ft 129 kts 256°
2026-05-07 14:59 48.69848 9.26748 1510 ft 129 kts 257°
2026-05-07 14:59 48.69603 9.25451 1346 ft 128 kts 256°
2026-05-07 14:59 48.69356 9.24167 1200 ft 126 kts 258°
2026-05-07 14:59 48.69137 9.22964 1208 ft 47 kts 254°
2026-05-07 15:00 48.69056 9.22544 1220 ft 34 kts 255°
2026-05-07 15:00 48.68993 9.22212 1228 ft 30 kts 255°
2026-05-07 15:00 48.68956 9.22016 1235 ft 27 kts 255°
2026-05-07 15:00 48.68944 9.21756 1241 ft 23 kts 277°
2026-05-07 15:01 48.68976 9.21532 1245 ft 0 kts 284°
2026-05-07 15:01 48.68977 9.21527 1245 ft 3 kts 284°
2026-05-07 15:01 48.68984 9.21488 1246 ft 8 kts 284°
2026-05-07 15:02 48.69000 9.21375 1248 ft 11 kts 274°
2026-05-07 15:02 48.68985 9.21262 1250 ft 10 kts 250°
2026-05-07 15:02 48.68963 9.21160 1252 ft 10 kts 254°
2026-05-07 15:02 48.68938 9.21012 1255 ft 17 kts 256°
2026-05-07 15:03 48.68909 9.20858 1260 ft 14 kts 253°
2026-05-07 15:03 48.68882 9.20707 1265 ft 15 kts 253°
2026-05-07 15:03 48.68850 9.20545 1270 ft 16 kts 253°
2026-05-07 15:03 48.68808 9.20316 1278 ft 17 kts 254°
2026-05-07 15:04 48.68773 9.20139 1285 ft 16 kts 254°
2026-05-07 15:04 48.68760 9.20029 1288 ft 17 kts 279°
2026-05-07 15:04 48.68826 9.19907 1295 ft 12 kts 329°
2026-05-07 15:04 48.68889 9.19846 1300 ft 8 kts 289°
2026-05-07 15:05 48.68879 9.19752 1303 ft 10 kts 253°
2026-05-07 15:05 48.68854 9.19623 1307 ft 14 kts 253°
2026-05-07 15:05 48.68847 9.19547 1309 ft 3 kts 300°
2026-05-07 15:05 48.68866 9.19533 1310 ft 1 kts 345°
2026-05-07 15:06 48.68871 9.19532 1311 ft 0 kts 345°
2026-05-07 15:06 48.68876 9.19530 1311 ft 0 kts 344°
2026-05-07 15:06 48.68886 9.19525 1311 ft 2 kts 343°
2026-05-07 15:06 48.68908 9.19516 1312 ft 3 kts 343°
2026-05-07 15:07 48.68917 9.19512 1312 ft 0 kts 343°